OBJECT XC

基本信息
目录编号:
62296
目录名称:
OBJECT XC
国际标识:
1998-067XC
轨道中心:
EARTH
物体状态:
已陨落(2025-04-04)
发射日期:
1998-11-20 UTC
国别:
日本 (JP)
轨道信息
数据来源: 国际轨道数据
星历时间: 2025-03-31T08:48:14+0800
半长轴: 6599.804km
偏心率: 0.0009413
轨道倾角: 51.613°
近地点辐角: 255.602°
升交点赤经: 318.885°
平近点角: 104.396°
近地点: 215.456km
远地点: 227.882km
周期: 88.932分钟
每日圈数: 16.192216
详细信息
发射场:
TTMTR
轨道高度:
LEO
数据来源:
AOE Integration Group
参考系:
TEME
时间系统:
UTC
历元类型:
SGP4
2D轨道图
3D轨道图
轨道高度分析图
轨道倾角分析图
轨道综合分析图
查看轨道综合分析图